Washington, Georgia, United States (30673)
Lat: 33.74N, Lon: 82.74W
Wx Zone: GAZ039
Local Info
Past Weather Observations for Today

NOTE: This archive is for the closest National Weather Service station to Washington. Information may differ from the station used for current weather conditions.

Click here for Long-term Archive

Time Weather Temperature Dewpoint Humidity Pressure Winds Precip Visibility
17:55
Overcast
43°F / 6°C 43°F / 6°C 100% 30.45 in
(1031 mb)
Calm - 1SM
17:35
Overcast
43°F / 6°C 43°F / 6°C 100% 30.45 in
(1031 mb)
Calm - 1SM
17:15
Overcast
43°F / 6°C 43°F / 6°C 100% 30.45 in
(1031 mb)
Calm - 1SM
16:55
Overcast
43°F / 6°C 43°F / 6°C 100% 30.45 in
(1031 mb)
Calm - 1 1/4SM
16:35
Overcast
43°F / 6°C 43°F / 6°C 100% 30.45 in
(1031 mb)
N 3.5 mph
(N 6 kph)
- 1 3/4SM
16:15
Overcast
43°F / 6°C 43°F / 6°C 100% 30.45 in
(1031 mb)
Calm - 4SM
15:55
Overcast
43°F / 6°C 43°F / 6°C 100% 30.45 in
(1031 mb)
Calm - 5SM
15:35
Overcast
43°F / 6°C 43°F / 6°C 100% 30.45 in
(1031 mb)
Calm - 7SM
15:15
Overcast
43°F / 6°C 43°F / 6°C 100% 30.45 in
(1031 mb)
NNW 3.5 mph
(NNW 6 kph)
- 7SM
14:55
Overcast
41°F / 5°C 41°F / 5°C 100% 30.45 in
(1031 mb)
NE 4.6 mph
(NE 7 kph)
- 4SM
14:35
Overcast
41°F / 5°C 41°F / 5°C 100% 30.45 in
(1031 mb)
NE 3.5 mph
(NE 6 kph)
- 4SM
14:15
Overcast
41°F / 5°C 41°F / 5°C 100% 30.48 in
(1032 mb)
Calm - 2SM
13:55
Overcast
41°F / 5°C 41°F / 5°C 100% 30.48 in
(1032 mb)
NNW 4.6 mph
(NNW 7 kph)
- 1 1/2SM
13:35
Overcast
41°F / 5°C 41°F / 5°C 100% 30.51 in
(1033 mb)
NNW 3.5 mph
(NNW 6 kph)
- 1 3/4SM
13:15
Overcast
41°F / 5°C 41°F / 5°C 100% 30.51 in
(1033 mb)
Calm - 3SM
12:55
Overcast
41°F / 5°C 41°F / 5°C 100% 30.51 in
(1033 mb)
Calm - 7SM
12:35
Overcast
41°F / 5°C 41°F / 5°C 100% 30.54 in
(1034 mb)
Calm - 5SM
12:15
Overcast
39°F / 4°C 39°F / 4°C 100% 30.54 in
(1034 mb)
Calm - 4SM
11:55
Overcast
39°F / 4°C 39°F / 4°C 100% 30.54 in
(1034 mb)
Calm - 3SM
11:35
Overcast
39°F / 4°C 39°F / 4°C 100% 30.57 in
(1035 mb)
NNE 3.5 mph
(NNE 6 kph)
- 3SM
11:15
Overcast
39°F / 4°C 39°F / 4°C 100% 30.57 in
(1035 mb)
NNE 4.6 mph
(NNE 7 kph)
- 4SM
10:55
Overcast
39°F / 4°C 39°F / 4°C 100% 30.57 in
(1035 mb)
NE 4.6 mph
(NE 7 kph)
- 3SM
10:35
Overcast
39°F / 4°C 39°F / 4°C 100% 30.57 in
(1035 mb)
NE 5.8 mph
(NE 9 kph)
- 3SM
10:15
Overcast
37°F / 3°C 37°F / 3°C 100% 30.57 in
(1035 mb)
NE 3.5 mph
(NE 6 kph)
- 5SM
09:55
Overcast
37°F / 3°C 37°F / 3°C 100% 30.6 in
(1036 mb)
NE 3.5 mph
(NE 6 kph)
- 7SM
09:35
Overcast
37°F / 3°C 37°F / 3°C 100% 30.6 in
(1036 mb)
NNE 4.6 mph
(NNE 7 kph)
- 5SM
09:15
Overcast
37°F / 3°C 37°F / 3°C 100% 30.6 in
(1036 mb)
NE 3.5 mph
(NE 6 kph)
- 2 1/2SM
08:55
Overcast
37°F / 3°C 37°F / 3°C 100% 30.6 in
(1036 mb)
NE 4.6 mph
(NE 7 kph)
- 3SM
08:35
Overcast
37°F / 3°C 37°F / 3°C 100% 30.6 in
(1036 mb)
NE 5.8 mph
(NE 9 kph)
- 5SM
08:15
Overcast
36°F / 2°C 36°F / 2°C 100% 30.6 in
(1036 mb)
NE 4.6 mph
(NE 7 kph)
- 4SM
07:55
Overcast
36°F / 2°C 36°F / 2°C 100% 30.6 in
(1036 mb)
NE 3.5 mph
(NE 6 kph)
- 3SM
07:35
Overcast
36°F / 2°C 36°F / 2°C 100% 30.6 in
(1036 mb)
NE 5.8 mph
(NE 9 kph)
- 2SM
07:15
Overcast
36°F / 2°C 36°F / 2°C 100% 30.6 in
(1036 mb)
NNE 6.9 mph
(NNE 11 kph)
- 1 3/4SM
06:55
Overcast
36°F / 2°C 36°F / 2°C 100% 30.6 in
(1036 mb)
NNE 4.6 mph
(NNE 7 kph)
- 2SM
06:35
Overcast
37°F / 3°C 37°F / 3°C 100% 30.57 in
(1035 mb)
Calm - 2 1/2SM
06:15
Overcast
37°F / 3°C 37°F / 3°C 100% 30.6 in
(1036 mb)
NE 5.8 mph
(NE 9 kph)
- 2SM
05:55
Overcast
37°F / 3°C 37°F / 3°C 100% 30.57 in
(1035 mb)
NE 5.8 mph
(NE 9 kph)
- 2 1/2SM
05:35
Overcast
37°F / 3°C 37°F / 3°C 100% 30.57 in
(1035 mb)
NE 6.9 mph
(NE 11 kph)
- 1 3/4SM
05:15
Overcast
37°F / 3°C 37°F / 3°C 100% 30.57 in
(1035 mb)
NE 5.8 mph
(NE 9 kph)
- 2SM
04:55
Overcast
37°F / 3°C 37°F / 3°C 100% 30.6 in
(1036 mb)
Calm - 2 1/2SM
04:35
Overcast
37°F / 3°C 37°F / 3°C 100% 30.57 in
(1035 mb)
NE 11.5 mph
(NE 19 kph)
- 2SM
04:15
Overcast
37°F / 3°C 37°F / 3°C 100% 30.57 in
(1035 mb)
NE 11.5 mph
(NE 19 kph)
- 4SM
03:55
Overcast
37°F / 3°C 37°F / 3°C 100% 30.57 in
(1035 mb)
N 10.4 mph
(N 17 kph)
- 4SM
03:35
Overcast
39°F / 4°C 39°F / 4°C 100% 30.57 in
(1035 mb)
NNE 8.1 mph
(NNE 13 kph)
- 2 1/2SM
03:15
Overcast
39°F / 4°C 39°F / 4°C 100% 30.6 in
(1036 mb)
NNW 4.6 mph
(NNW 7 kph)
- 2 1/2SM
02:55
Overcast
39°F / 4°C 39°F / 4°C 100% 30.6 in
(1036 mb)
NNE 6.9 mph
(NNE 11 kph)
- 2SM
02:35
Overcast
41°F / 5°C 41°F / 5°C 100% 30.63 in
(1037 mb)
N 4.6 mph
(N 7 kph)
- 3SM
02:15
Overcast
41°F / 5°C 41°F / 5°C 100% 30.6 in
(1036 mb)
N 4.6 mph
(N 7 kph)
- 3SM
01:55
Overcast
41°F / 5°C 39°F / 4°C 93% 30.63 in
(1037 mb)
NNE 5.8 mph
(NNE 9 kph)
- 5SM
01:35
Overcast
41°F / 5°C 39°F / 4°C 93% 30.6 in
(1036 mb)
NNE 6.9 mph
(NNE 11 kph)
- 10SM
01:15
Overcast
41°F / 5°C 39°F / 4°C 93% 30.63 in
(1037 mb)
NE 5.8 mph
(NE 9 kph)
- 10SM
00:55
Overcast
41°F / 5°C 39°F / 4°C 93% 30.63 in
(1037 mb)
NNE 4.6 mph
(NNE 7 kph)
- 5SM
00:35
Overcast
43°F / 6°C 39°F / 4°C 87% 30.63 in
(1037 mb)
NE 5.8 mph
(NE 9 kph)
- 7SM
00:15
Overcast
43°F / 6°C 39°F / 4°C 87% 30.63 in
(1037 mb)
NE 6.9 mph
(NE 11 kph)
- 10SM
Time Weather Temperature Dewpoint Humidity Pressure Winds Precip Visibility


Weather for websites

WeatherForYou.com, LLC is not responsible for any damages or problems caused by this service. Current weather conditions are obtained from the closest station including government and personal stations which may have varying degrees of accuracy. Weather forecasts are derived from the NOAA NDFD. Like all things, this site belongs to Jesus Christ... He just trusts me to maintain it. If you have any questions or comments email webmaster@weatherforyou.com

Copyright © 2015, WeatherForYou.com LLC. All rights reserved.